TimeCST,TemperatureF,Dew PointF,Humidity,Sea Level PressureIn,VisibilityMPH,Wind Direction,Wind SpeedMPH,Gust SpeedMPH,PrecipitationIn,Events,Conditions,WindDirDegrees,DateUTC
12:53 AM,46.0,41.0,83,29.94,10.0,Calm,Calm,-,N/A,,Clear,0,2012-12-18 06:53:00
1:53 AM,44.1,43.0,96,29.94,10.0,SE,3.5,-,N/A,,Clear,130,2012-12-18 07:53:00
2:53 AM,44.1,41.0,89,29.93,10.0,SE,4.6,-,N/A,,Clear,140,2012-12-18 08:53:00
3:53 AM,44.1,41.0,89,29.93,10.0,SSE,3.5,-,N/A,,Clear,150,2012-12-18 09:53:00
4:53 AM,46.0,42.1,86,29.92,10.0,South,3.5,-,N/A,,Clear,180,2012-12-18 10:53:00
5:53 AM,48.9,46.0,90,29.93,10.0,South,5.8,-,N/A,,Clear,180,2012-12-18 11:53:00
6:53 AM,50.0,48.9,96,29.94,10.0,SSE,3.5,-,N/A,,Clear,160,2012-12-18 12:53:00
7:53 AM,53.1,52.0,96,29.96,10.0,South,4.6,-,N/A,,Clear,170,2012-12-18 13:53:00
8:53 AM,63.0,57.9,84,29.96,10.0,South,6.9,-,N/A,,Clear,170,2012-12-18 14:53:00
9:53 AM,68.0,57.9,70,29.97,10.0,South,10.4,-,N/A,,Clear,180,2012-12-18 15:53:00
10:53 AM,73.0,55.9,55,29.97,10.0,South,11.5,19.6,N/A,,Clear,190,2012-12-18 16:53:00
11:53 AM,75.0,53.1,46,29.95,10.0,SSW,15.0,20.7,N/A,,Clear,210,2012-12-18 17:53:00
12:53 PM,75.9,51.1,42,29.94,10.0,South,13.8,20.7,N/A,,Clear,190,2012-12-18 18:53:00
1:53 PM,75.9,52.0,43,29.91,10.0,SSW,13.8,18.4,N/A,,Clear,200,2012-12-18 19:53:00
2:53 PM,75.9,52.0,43,29.91,10.0,SSW,12.7,20.7,N/A,,Clear,210,2012-12-18 20:53:00
3:53 PM,73.9,55.0,52,29.91,10.0,South,12.7,19.6,N/A,,Clear,190,2012-12-18 21:53:00
4:53 PM,69.1,57.0,65,29.91,10.0,South,10.4,-,N/A,,Partly Cloudy,190,2012-12-18 22:53:00
5:53 PM,62.1,57.9,86,29.90,10.0,South,6.9,-,N/A,,Clear,170,2012-12-18 23:53:00
6:53 PM,63.0,59.0,87,29.90,10.0,SSE,9.2,-,N/A,,Clear,160,2012-12-19 00:53:00
7:53 PM,63.0,57.9,84,29.90,10.0,South,9.2,-,N/A,,Clear,170,2012-12-19 01:53:00
8:53 PM,63.0,59.0,87,29.91,10.0,South,9.2,-,N/A,,Clear,170,2012-12-19 02:53:00
9:53 PM,63.0,59.0,87,29.91,10.0,SSE,10.4,-,N/A,,Clear,160,2012-12-19 03:53:00
10:53 PM,64.0,60.1,87,29.91,10.0,SSE,11.5,-,N/A,,Clear,160,2012-12-19 04:53:00
11:53 PM,64.0,60.1,87,29.92,10.0,SSE,11.5,-,N/A,,Clear,160,2012-12-19 05:53:00